Tracking 28790 objects as of 19-Apr-2024
HD Live streaming from Space Station
objects crossing your sky now

CZ-2 DEB

Track CZ-2 DEB now!
10-day predictions


NORAD ID: 38658
Int'l Code: 2009-072F
Perigee: 1,144.7 km
Apogee: 1,353.3 km
Inclination: 100.6 °
Period: 110.3 minutes
Semi major axis: 7619 km
RCS: 0.0014 m2 (small)
Launch date: December 15, 2009
Source: People's Republic of China (PRC)
Launch site: Taiyaun Space Center, China (TSC)

Note: This is SATELLITE DEBRIS
Your satellite tracking list
Your tracking list is empty




NASA's NSSDC Master Catalog

Two Line Element Set (TLE):
1 38658U 09072F   24108.61918003 -.00000198  00000-0 -45628-3 0  9999
2 38658 100.5683  36.5738 0136856  40.1849  80.7222 13.05185964674899
Source of the keplerian elements: AFSPC